Cloud_Cover
13 5 1 0 1 9 0 0 5 0 0 0 0 0 0 2 1 8 18 13 20 0 0 6 16 12 0 0 0 0 0 0 1 5 6 78 92 5 3 0 0 15 0
14 4 0 0 1 3 0 5 4 0 0 0 0 0 0 3 3 0 0 0 0 6 0 0 0 0 0 0 0 3 0 0 2 9 96 75 9 5 5 0 0 0 0
30 15 5 0 6 0 1 5 1 0 0 0 0 0 0 0 0 0 0 0 0 4 20 0 0 0 0 0 0 0 0 0 0 0 1 5 44 5 5 0 0 0 0
50 20 24 0 1 4 0 5 0 0 0 0 0 0 3 3 12 19 12 13 0 0 19 18 3 0 0 0 0 0 0 0 0 0 0 0 1 0 0 0 0 0 0
90 100 69 4 0 6 16 22 19 5 8 5 6 23 22 18 22 22 10 0 0 0 0 0 4 18 16 0 0 0 0 0 0 0 0 0 0 0 0 0 0 8 0
100 100 5 5 5 5 6 4 14 16 25 28 27 4 1 9 12 24 22 19 11 12 16 13 16 8 0 4 8 15 4 0 0 5 29 3 0 0 0 0 0 0 0
83 96 14 5 6 11 20 7 10 0 4 0 0 0 0 0 0 0 5 0 0 0 0 0 8 24 30 4 4 5 0 0 1 8 40 44 34 6 0 0 0 0 2
100 75 49 17 12 19 5 5 5 3 5 5 5 1 0 0 0 0 0 0 0 0 2 0 0 0 0 0 6 5 0 0 23 57 84 73 35 0 0 0 0 0 0
100 100 90 30 5 56 8 5 5 5 5 5 5 5 5 3 5 5 0 0 0 1 5 0 0 0 0 0 0 0 0 0 7 20 80 97 100 30 0 0 8 49 21
62 6 5 5 5 24 56 75 94 5 5 5 5 8 100 5 41 4 4 0 0 0 0 0 0 0 0 0 0 0 0 0 2 7 91 100 100 8 20 39 85 18 42
5 5 45 39 86 86 96 86 74 46 5 5 5 65 99 9 32 5 0 0 0 0 0 0 0 0 0 0 0 0 0 0 0 4 97 100 89 0 0 99 83 44 41
50 83 87 100 100 100 100 100 84 38 53 5 60 100 100 82 29 5 1 0 0 2 0 0 0 0 0 0 0 0 0 0 0 0 16 36 39 81 26 100 14 12 10
73 98 100 92 76 87 50 90 79 19 9 98 100 73 56 55 5 5 5 0 2 1 0 5 3 1 0 0 1 0 0 0 0 0 0 0 0 0 100 95 78 26 4
93 49 88 90 58 62 91 52 81 51 100 100 99 78 84 45 42 5 5 3 4 3 4 27 100 97 6 3 0 0 0 0 0 0 0 0 0 0 8 59 6 3 0
96 91 87 65 99 90 84 99 99 100 100 100 100 100 100 100 10 5 5 5 0 13 83 100 63 4 0 0 0 0 0 0 0 0 0 0 0 0 0 0 0 0 0
100 100 100 100 100 100 100 100 99 100 100 100 100 100 100 12 5 5 5 5 17 39 20 22 2 1 0 0 0 0 0 0 0 0 0 0 0 0 0 0 0 0 0
100 100 98 100 100 100 100 100 100 100 100 100 100 100 74 5 5 5 5 0 0 0 0 0 0 0 0 0 0 0 0 0 0 0 0 0 7 2 1 0 0 0 0
70 100 100 100 100 100 100 100 100 100 100 100 100 57 5 5 5 0 0 0 0 0 0 0 0 0 0 4 7 0 0 0 0 2 18 26 60 37 36 0 0 0 0
81 88 100 100 100 100 100 100 100 100 100 100 56 5 1 0 0 0 0 0 0 0 0 0 0 0 0 14 0 0 0 0 0 6 18 0 1 1 0 0 0 0 9
50 67 99 100 100 100 100 100 100 100 47 7 5 4 0 0 0 0 0 0 0 0 0 0 0 0 9 3 0 0 0 0 0 22 13 0 0 0 7 25 31 24 96
5 7 73 99 100 97 37 18 8 20 28 5 5 0 0 0 0 0 0 0 0 0 0 0 0 9 33 44 0 0 0 0 0 0 1 0 0 3 24 23 100 100 100
5 3 4 5 16 14 17 38 30 6 4 0 0 0 0 0 0 0 0 0 0 0 0 0 0 28 74 97 74 1 4 0 28 7 16 22 0 31 18 55 100 100 100
0 0 1 5 0 1 4 2 1 0 0 0 0 0 0 0 0 0 0 0 0 0 0 0 0 6 100 92 87 31 39 6 2 5 9 5 32 34 86 100 100 100 100
0 0 0 0 0 0 0 0 0 0 0 0 0 0 0 0 0 0 0 0 0 0 0 0 0 0 97 100 58 92 82 98 59 6 24 3 93 100 100 100 100 100 100
0 0 0 0 0 0 0 0 0 0 0 0 0 0 0 0 0 0 0 0 0 0 0 0 0 0 48 100 100 94 55 95 100 92 97 7 31 83 97 100 100 100 100
0 0 0 0 0 0 0 0 0 0 0 0 0 0 0 0 0 0 0 0 0 0 0 0 0 0 8 35 100 100 100 100 100 100 89 20 30 64 11 0 100 1 6